Burlington, CO

3:28 PM MDT on August 18, 2017 (GMT -0600)
Kit Carson County

Weather History for KITR - October, 2013

Change the Weather History Date:

Monday, October 21, 2013

  Actual Average Record
Temperature  
Mean Temperature 45 °F 49 °F  
Max Temperature 61 °F 63 °F 87 °F (1940)
Min Temperature 29 °F 35 °F 22 °F (1932)
Degree Days  
Heating Degree Days 20    
Moisture  
Dew Point 30 °F    
Average Humidity 63    
Maximum Humidity 96    
Minimum Humidity 26    
Precipitation  
Precipitation 0.00 in 0.04 in 0.86 in (1979)
Month to date precipitation 0.62 0.85  
Year to date precipitation 16.52 16.14  
Sea Level Pressure  
Sea Level Pressure 30.11 in    
Wind  
Wind Speed 9 mph (West)    
Max Wind Speed 20 mph    
Max Gust Speed 28 mph    
Visibility 10 miles    
Events      
T = Trace of Precipitation, MM = Missing Value Source: NWS Daily Summary

Daily Weather History Graph

Daily Weather History Graph

Search for Another Location

Airport or City:

Trip Planner

Search our weather history database for the weather conditions in past years. The results will help you decide how hot, cold, wet, or windy it might be!

Date:

Astronomy

Oct. 21, 2013 Rise Set
Actual Time 7:05 AM MDT 6:01 PM MDT
Civil Twilight 6:38 AM MDT 6:28 PM MDT
Nautical Twilight 6:06 AM MDT 6:59 PM MDT
Astronomical Twilight 5:35 AM MDT 7:30 PM MDT
Moon 7:56 PM MDT (10/21) 9:41 AM MDT (10/21)
Length of Visible Light 11h 50m
Length of Day
10h 56m
Waning Gibbous, 92% of the Moon is Illuminated
Oct 21
Waning Gibbous
Oct 26
Last Quarter
Nov 3
New
Nov 9
First Quarter
Nov 17
Full

Hourly Weather History & Observations

Time (MDT) Temp. Windchill Dew Point Humidity Pressure Visibility Wind Dir Wind Speed Gust Speed Precip Events Conditions
12:53 AM 34.0 °F 28.0 °F 32.0 °F 92% 30.12 in 10.0 mi West 6.9 mph - N/A   Mostly Cloudy
1:53 AM 33.1 °F 26.1 °F 30.9 °F 92% 30.13 in 10.0 mi WSW 8.1 mph - N/A   Partly Cloudy
2:53 AM 30.9 °F 23.5 °F 30.0 °F 96% 30.14 in 10.0 mi West 8.1 mph - N/A   Partly Cloudy
3:53 AM 30.9 °F 24.3 °F 30.0 °F 96% 30.14 in 10.0 mi West 6.9 mph - N/A   Mostly Cloudy
4:53 AM 32.0 °F 26.4 °F 30.0 °F 92% 30.14 in 10.0 mi WSW 5.8 mph - N/A   Clear
5:53 AM 30.9 °F 22.8 °F 28.9 °F 92% 30.16 in 10.0 mi WSW 9.2 mph - N/A   Clear
6:53 AM 30.0 °F 23.2 °F 28.0 °F 92% 30.17 in 10.0 mi West 6.9 mph - N/A   Clear
7:53 AM 33.1 °F 26.9 °F 30.0 °F 89% 30.17 in 10.0 mi WSW 6.9 mph - N/A   Clear
8:53 AM 42.1 °F 35.7 °F 35.1 °F 76% 30.17 in 10.0 mi WNW 11.5 mph - N/A   Clear
9:53 AM 50.0 °F - 32.0 °F 50% 30.16 in 10.0 mi WNW 12.7 mph - N/A   Clear
10:53 AM 52.0 °F - 30.0 °F 43% 30.14 in 10.0 mi WNW 12.7 mph - N/A   Clear
11:53 AM 55.9 °F - 28.9 °F 36% 30.11 in 10.0 mi West 15.0 mph 21.9 mph N/A   Clear
12:53 PM 57.9 °F - 27.0 °F 31% 30.09 in 10.0 mi NW 18.4 mph 25.3 mph N/A   Clear
1:53 PM 60.1 °F - 27.0 °F 28% 30.07 in 10.0 mi NW 19.6 mph 27.6 mph N/A   Mostly Cloudy
2:53 PM 57.9 °F - 26.1 °F 30% 30.06 in 10.0 mi NW 15.0 mph 25.3 mph N/A   Mostly Cloudy
3:53 PM 60.1 °F - 25.0 °F 26% 30.06 in 10.0 mi WNW 18.4 mph 26.5 mph N/A   Partly Cloudy
4:53 PM 57.9 °F - 26.1 °F 30% 30.05 in 10.0 mi NW 13.8 mph - N/A   Clear
5:53 PM 53.1 °F - 30.0 °F 41% 30.08 in 10.0 mi NW 9.2 mph - N/A   Partly Cloudy
6:53 PM 46.9 °F - 30.9 °F 54% 30.10 in 10.0 mi WNW 5.8 mph - N/A   Clear
7:53 PM 39.9 °F 33.9 °F 30.9 °F 70% 30.12 in 10.0 mi WSW 9.2 mph - N/A   Partly Cloudy
8:53 PM 43.0 °F 37.7 °F 32.0 °F 65% 30.09 in 10.0 mi WSW 9.2 mph - N/A   Overcast
9:53 PM 45.0 °F 40.6 °F 33.1 °F 63% 30.06 in 10.0 mi WSW 8.1 mph - N/A   Overcast
10:53 PM 45.0 °F 41.2 °F 33.1 °F 63% 30.06 in 10.0 mi WSW 6.9 mph - N/A   Overcast
11:53 PM 45.0 °F 41.2 °F 32.0 °F 60% 30.06 in 10.0 mi WSW 6.9 mph - N/A   Mostly Cloudy